sat.trackr.live / text

‹ back to catalog

STARLINK-36227

NORAD 67095 · 2025-298W

PAYLOAD ACTIVE UNKNOWN

§ Identity

Operator
Country
US
Launch date
2025-12-14
Launch site
AFWTR
Launch vehicle
Mass (kg)
RCS (m²)

Purposes: comms

External: N2YO · Heavens-Above · Gunter

§ Orbital elements

Epoch: 2026-09-19T07:57:21.287232Z

Period
96.11 min
Inclination
69.9990°
Eccentricity
0.0003755
Mean motion
14.98338962 rev/d
Perigee alt
569.4 km
Apogee alt
574.6 km
Semi-major
6,950.2 km
B*
2.7914e-4
RAAN
246.1875°
Arg perigee
265.7759°
Mean anomaly
94.2971°
Rev number
4,222

§ Raw data

STARLINK-362271 67095U 25298W   26262.33149638  .00003240  00000+0  27914-3 0  99922 67095  69.9990 246.1875 0003755 265.7759  94.2971 14.98338962 42220

JSON: /api/v1/satellites/67095 · /tle

For live sub-satellite position, see the globe view (requires WebGL).

§ Visibility from observer

Set your observer location to see the next 7 days of passes ≥ 10°. The values pass through the URL so the page stays shareable.

No JS? Fill the form by hand. The geolocation button needs JavaScript.